Location: Unspecified
(0.0000°N, 0.0000°E)
Time: 08:04:22
(UTC+00:00)

SJ-6F - Pass Details

Date: 03 August 2021
Orbit: 570 x 593 km, 97.8° (Epoch: 27 September)

Event Time Altitude Azimuth Distance (km) Brightness Sun altitude
Rises 04:03:32 0° 13° (NNE) 2,772 8.3 -29.1°
Reaches altitude 10° 04:05:40 10° 15° (NNE) 1,874 7.4 -28.6°
Enters shadow 04:07:50 31° 19° (NNE) 1,017 5.9 -28.1°
